This demonstration page uses our WeatherBlox Daily Observations layout. Learn more.

Left ArrowRight Arrow

41.86663, -103.66717

Hourly Observations for March 22, 2016

Temp ( °F °C ) Dew Point ( °F °C ) Humidity (%) Winds ( mph kmh ) Pressure ( in mb ) Visibility ( mi km ) Precip ( " mm )
12:53 am 00:53 Clear 46 7.8 24 -4.4 42 42 NNW 6 9 29.59 1002 10 16 N/A
1:53 am 01:53 Clear 48 8.9 24 -4.4 39 39 NW 6 9 29.58 1002 10 16 N/A
2:53 am 02:53 Clear 47 8.3 24 -4.4 41 41 N N/A 29.56 1001 10 16 N/A
3:53 am 03:53 Clear 40 4.4 24 -4.4 53 53 N 6 9 29.55 1001 10 16 N/A
4:53 am 04:53 Clear 44 6.7 26 -3.3 49 49 N 10 17 29.54 1000 10 16 N/A
5:53 am 05:53 Partly Cloudy 46 7.8 25 -3.9 44 44 WNW 9 15 29.54 1000 10 16 N/A
6:53 am 06:53 Mostly Cloudy 43 6.1 27 -2.8 53 53 WNW 6 9 29.55 1001 10 16 N/A
7:53 am 07:53 Partly Cloudy 45 7.2 28 -2.2 52 52 N N/A 29.55 1001 10 16 N/A
8:53 am 08:53 Mostly Sunny 50 10 27 -2.8 41 41 NNW 7 11 29.54 1000 10 16 N/A
9:53 am 09:53 Sunny 57 13.9 26 -3.3 30 30 N N/A 29.52 1000 10 16 N/A
10:53 am 10:53 Sunny 61 16.1 27 -2.8 27 27 SE 8 13 29.50 999 10 16 N/A
11:53 am 11:53 Sunny 62 16.7 28 -2.2 28 28 SE 8 13 29.48 998 10 16 N/A
12:53 pm 12:53 Sunny 65 18.3 27 -2.8 24 24 ESE 8 13 29.44 997 10 16 N/A
1:53 pm 13:53 Sunny 68 20 26 -3.3 21 21 N N/A 29.40 996 10 16 N/A
2:53 pm 14:53 Mostly Sunny 70 21.1 23 -5 17 17 VRB 3 6 29.36 994 10 16 N/A
3:53 pm 15:53 Mostly Cloudy 69 20.6 20 -6.7 15 15 N N/A 29.37 995 10 16 N/A
4:53 pm 16:53 Mostly Cloudy 70 21.1 24 -4.4 18 18 ENE 9 15 29.35 994 10 16 N/A
5:53 pm 17:53 Mostly Cloudy 61 16.1 28 -2.2 29 29 NE 15 24 29.38 995 10 16 N/A
6:53 pm 18:53 Partly Cloudy 55 12.8 31 -0.6 40 40 NNE 29 46 29.44 997 10 16 N/A
7:53 pm 19:53 Cloudy 51 10.6 31 -0.6 46 46 NNE 25 41 29.48 998 10 16 N/A
8:53 pm 20:53 Clear 48 8.9 32 undefined 54 54 NE 18 30 29.49 999 10 16 N/A
9:53 pm 21:53 Cloudy 48 8.9 34 1.1 58 58 NE 23 37 29.49 999 10 16 N/A
10:53 pm 22:53 Clear 44 6.7 34 1.1 68 68 NE 22 35 29.49 999 10 16 N/A
11:53 pm 23:53 Cloudy 43 6.1 34 1.1 71 71 N 8 13 29.54 1000 10 16 N/A

Powered by AerisWeather